カタログに戻る

STARLINK-30362

運用中通信VLEO
NORAD 57745·PAYLOAD·🇺🇸 United States

打ち上げ Sep 1, 2023 から Cape Canaveral Space Force Station

Loading…

次のパス (今後24時間)

TLE

最新Source: CelesTrak SupGP

元期: Sep 14, 2026, 21:12 UTC

1 57745C 23131P   26257.88381944  .00000427  00000+0  15462-4 0  2576
2 57745  43.0018 184.3896 0001392 264.2672 198.1731 15.27580188    15

AllMySatでSTARLINK-30362をリアルタイム追跡

Download on the App Store